FW4287 Weather Reports


Display with metric or nautical units.
time (UTC)temp
F
wind
direction
speed
MPH
gust
MPH
rain 1hr
in
rain 24hr
in
rain mn
in
humidity
%
barometer
mb
20260505010034 75 190 9.0 18.0 0.00 0.00 0.00 40 1010.1
20260505004530 76 213 9.0 16.0 0.00 0.00 0.00 38 1010.0
20260505003031 76 225 9.0 18.0 0.00 0.00 0.00 37 1010.0
20260505001537 77 228 10.0 17.0 0.00 0.00 0.00 37 1010.0
20260505000029 78 208 10.0 19.0 0.00 0.00 0.00 37 1010.0
20260504234604 78 224 10.0 17.0 0.00 0.00 0.00 36 1009.9
20260504233032 78 217 10.0 17.0 0.00 0.00 0.00 37 1009.9
20260504231604 79 207 10.0 19.0 0.00 0.00 0.00 37 1009.9
20260504224527 80 239 8.0 19.0 0.00 0.00 0.00 38 1010.0
20260504223147 79 299 2.0 10.0 0.00 0.00 0.00 41 1010.2
20260504221645 77 350 4.0 12.0 0.00 0.00 0.00 44 1010.2
20260504214526 76 4 7.0 12.0 0.00 0.00 0.00 45 1010.6
20260504213116 75 359 7.0 11.0 0.00 0.00 0.00 46 1010.7
20260504211646 75 1 6.0 11.0 0.00 0.00 0.00 46 1010.8
20260504204530 75 2 7.0 14.0 0.00 0.00 0.00 45 1011.1
20260504203032 75 354 7.0 15.0 0.00 0.00 0.00 46 1011.1
20260504201645 74 6 7.0 13.0 0.00 0.00 0.00 47 1011.3
20260504200029 74 3 8.0 13.0 0.00 0.00 0.00 48 1011.4
20260504194531 73 6 7.0 13.0 0.00 0.00 0.00 48 1011.4
20260504191531 72 359 8.0 12.0 0.00 0.00 0.00 50 1011.6
20260504190032 71 357 8.0 12.0 0.00 0.00 0.00 52 1011.7
20260504184644 71 348 8.0 12.0 0.00 0.00 0.00 54 1011.7
20260504183031 69 352 8.0 12.0 0.00 0.00 0.00 55 1011.7
20260504181529 69 354 8.0 12.0 0.00 0.00 0.00 56 1011.8
20260504180032 69 359 7.0 10.0 0.00 0.00 0.00 57 1011.8
20260504174531 69 3 6.0 10.0 0.00 0.00 0.00 58 1011.7
20260504171529 68 351 6.0 9.0 0.00 0.00 0.00 59 1011.8
20260504090107 56 113 0.0 3.0 0.00 0.00 0.00 64 1011.3
20260504081603 54 115 0.0 4.0 0.00 0.00 0.00 68 1011.4
20260504044530 60 202 0.0 1.0 0.00 0.00 0.00 61 1011.1
20260504043032 61 202 0.0 0.0 0.00 0.00 0.00 60 1010.9
20260504041606 61 202 0.0 2.0 0.00 0.00 0.00 59 1010.7
20260504040037 63 202 0.0 2.0 0.00 0.00 0.00 56 1010.5
20260504034532 65 183 1.0 5.0 0.00 0.00 0.00 54 1010.3
20260504033031 66 103 0.0 4.0 0.00 0.00 0.00 51 1010.0
20260504031533 70 90 0.0 0.0 0.00 0.00 0.00 46 1009.9
20260504030030 74 83 0.0 1.0 0.00 0.00 0.00 39 1009.9
20260504024531 77 43 2.0 6.0 0.00 0.00 0.00 34 1009.8
20260504023030 78 53 2.0 6.0 0.00 0.00 0.00 32 1009.9
20260504021531 79 36 3.0 7.0 0.00 0.00 0.00 32 1010.0
20260504020031 80 23 4.0 7.0 0.00 0.00 0.00 30 1010.1
20260504014532 81 15 4.0 6.0 0.00 0.00 0.00 29 1010.1
20260504013028 81 18 3.0 6.0 0.00 0.00 0.00 28 1010.3
20260504011531 81 10 3.0 7.0 0.00 0.00 0.00 27 1010.4